Weather History for Platteville, WI

Change the Weather History Date:

Saturday, March 23, 2013

  Actual Average (KDBQ) Record (KDBQ)
Temperature  
Mean Temperature 30 °F 38 °F  
Max Temperature 37 °F 48 °F 84 °F (1910)
Min Temperature 23 °F 29 °F 4 °F (1960)
Degree Days  
Heating Degree Days 35 27  
Month to date heating degree days 721  
Since 1 July heating degree days 6114  
Cooling Degree Days 0 0  
Month to date cooling degree days 0  
Year to date cooling degree days 0  
Moisture  
Dew Point 22 °F    
Average Humidity 68    
Maximum Humidity 93    
Minimum Humidity 48    
Precipitation  
Precipitation 0.00 in 0.08 in 0.88 in (1913)
Month to date precipitation 1.67  
Year to date precipitation 4.28  
Snow  
Snow 0.00 in 0.20 in - ()
Month to date snowfall 5.1  
Since 1 July snowfall 38.7  
Snow Depth -    
Sea Level Pressure  
Sea Level Pressure 30.07 in    
Wind  
Wind Speed 2 mph (ENE)    
Max Wind Speed 9 mph    
Max Gust Speed -    
Visibility 10 miles    
Events      
T = Trace of Precipitation, MM = Missing Value Source: NWS Daily Summary

Daily Weather History Graph

Daily Weather History Graph

Search for Another Location

Airport:

Trip Planner

Search our weather history database for the weather conditions in past years. The results will help you decide how hot, cold, wet, or windy it might be!

Date:

Astronomy

Mar. 23, 2013 Rise Set
Actual Time 6:59 AM CDT 7:17 PM CDT
Civil Twilight 6:31 AM CDT 7:46 PM CDT
Nautical Twilight 5:57 AM CDT 8:19 PM CDT
Astronomical Twilight 5:24 AM CDT 8:53 PM CDT
Moon 3:40 PM CDT (3/23) 4:40 AM CDT (3/23)
Length of Visible Light 13h 14m
Length of Day
12h 18m
Waxing Gibbous, 85% of the Moon is Illuminated
Mar 23
Waxing Gibbous
Mar 27
Full
Apr 2
Last Quarter
Apr 10
New
Apr 18
First Quarter

Hourly Weather History & Observations

Time (CDT) Temp. Windchill Dew Point Humidity Pressure Visibility Wind Dir Wind Speed Gust Speed Precip Events Conditions
12:15 AM 28.4 °F 24.6 °F 21.2 °F 74% 30.06 in 10.0 mi East 3.5 mph - N/A   Scattered Clouds
12:55 AM 28.4 °F - 23.0 °F 80% 30.06 in 10.0 mi Calm Calm - N/A   Scattered Clouds
1:15 AM 28.4 °F - 23.0 °F 80% 30.06 in 10.0 mi Calm Calm - N/A   Clear
1:35 AM 28.4 °F - 21.2 °F 74% 30.07 in 10.0 mi Calm Calm - N/A   Mostly Cloudy
1:55 AM 28.4 °F - 21.2 °F 74% 30.07 in 10.0 mi Calm Calm - N/A   Scattered Clouds
2:15 AM 28.4 °F - 21.2 °F 74% 30.06 in 10.0 mi Calm Calm - N/A   Mostly Cloudy
2:35 AM 28.4 °F - 23.0 °F 80% 30.06 in 10.0 mi Calm Calm - N/A   Mostly Cloudy
2:55 AM 28.4 °F - 23.0 °F 80% 30.06 in 10.0 mi Calm Calm - N/A   Scattered Clouds
3:15 AM 28.4 °F - 23.0 °F 80% 30.05 in 10.0 mi Calm Calm - N/A   Clear
3:35 AM 28.4 °F - 23.0 °F 80% 30.05 in 10.0 mi Calm Calm - N/A   Clear
3:55 AM 28.4 °F - 23.0 °F 80% 30.04 in 10.0 mi Calm Calm - N/A   Clear
4:15 AM 28.4 °F - 23.0 °F 80% 30.04 in 10.0 mi Calm Calm - N/A   Clear
4:35 AM 28.4 °F - 19.4 °F 69% 30.04 in 10.0 mi Calm Calm - N/A   Clear
4:55 AM 26.6 °F - 21.2 °F 80% 30.05 in 10.0 mi Calm Calm - N/A   Clear
5:15 AM 26.6 °F - 23.0 °F 86% 30.06 in 10.0 mi Calm Calm - N/A   Clear
5:35 AM 24.8 °F - 23.0 °F 93% 30.07 in 10.0 mi Calm Calm - N/A   Clear
5:55 AM 26.6 °F - 23.0 °F 86% 30.07 in 10.0 mi Calm Calm - N/A   Clear
6:35 AM 23.0 °F 15.8 °F 21.2 °F 93% 30.09 in 10.0 mi West 5.8 mph - N/A   Clear
6:55 AM 24.8 °F 20.5 °F 21.2 °F 86% 30.09 in 10.0 mi NNW 3.5 mph - N/A   Clear
7:15 AM 23.0 °F 18.4 °F 21.2 °F 93% 30.09 in 10.0 mi NNW 3.5 mph - N/A   Clear
7:55 AM 24.8 °F - 21.2 °F 86% 30.11 in 10.0 mi Calm Calm - N/A   Clear
8:15 AM 26.6 °F 22.6 °F 21.2 °F 80% 30.11 in 10.0 mi NW 3.5 mph - N/A   Clear
8:35 AM 26.6 °F 22.6 °F 21.2 °F 80% 30.11 in 10.0 mi North 3.5 mph - N/A   Clear
8:55 AM 28.4 °F 20.4 °F 21.2 °F 74% 30.09 in 10.0 mi NNE 8.1 mph - N/A   Clear
9:15 AM 28.4 °F 21.2 °F 21.2 °F 74% 30.09 in 10.0 mi North 6.9 mph - N/A   Clear
9:35 AM 30.2 °F 24.3 °F 19.4 °F 64% 30.10 in 10.0 mi NNE 5.8 mph - N/A   Clear
9:55 AM 32.0 °F 28.7 °F 19.4 °F 60% 30.11 in 10.0 mi NE 3.5 mph - N/A   Clear
10:15 AM 32.0 °F 27.5 °F 19.4 °F 60% 30.11 in 10.0 mi East 4.6 mph - N/A   Clear
10:35 AM 32.0 °F - 21.2 °F 64% 30.11 in 10.0 mi Calm Calm - N/A   Clear
10:55 AM 32.0 °F 28.7 °F 19.4 °F 60% 30.11 in 10.0 mi ENE 3.5 mph - N/A   Clear
11:15 AM 33.8 °F 29.6 °F 21.2 °F 60% 30.12 in 10.0 mi NE 4.6 mph - N/A   Clear
11:35 AM 33.8 °F 29.6 °F 19.4 °F 56% 30.11 in 10.0 mi ENE 4.6 mph - N/A   Clear
11:55 AM 33.8 °F 30.8 °F 21.2 °F 60% 30.12 in 10.0 mi ESE 3.5 mph - N/A   Clear
12:15 PM 33.8 °F 30.8 °F 21.2 °F 60% 30.12 in 10.0 mi East 3.5 mph - N/A   Clear
12:55 PM 33.8 °F 29.6 °F 19.4 °F 56% 30.11 in 10.0 mi ENE 4.6 mph - N/A   Clear
1:15 PM 35.6 °F 32.8 °F 19.4 °F 52% 30.11 in 10.0 mi NE 3.5 mph - N/A   Clear
1:35 PM 35.6 °F - 19.4 °F 52% 30.11 in 10.0 mi Calm Calm - N/A   Clear
1:55 PM 35.6 °F 32.8 °F 17.6 °F 48% 30.10 in 10.0 mi ENE 3.5 mph - N/A   Clear
2:15 PM 35.6 °F - 17.6 °F 48% 30.09 in 10.0 mi Calm Calm - N/A   Clear
2:35 PM 35.6 °F 32.8 °F 19.4 °F 52% 30.08 in 10.0 mi ENE 3.5 mph - N/A   Clear
2:55 PM 35.6 °F 31.7 °F 19.4 °F 52% 30.08 in 10.0 mi ENE 4.6 mph - N/A   Clear
3:15 PM 35.6 °F 31.7 °F 19.4 °F 52% 30.07 in 10.0 mi ESE 4.6 mph - N/A   Clear
3:35 PM 35.6 °F - 21.2 °F 56% 30.07 in 10.0 mi Calm Calm - N/A   Clear
3:55 PM 35.6 °F 31.7 °F 19.4 °F 52% 30.06 in 10.0 mi East 4.6 mph - N/A   Clear
4:15 PM 37.4 °F - 19.4 °F 48% 30.05 in 10.0 mi Calm Calm - N/A   Clear
4:35 PM 35.6 °F 30.7 °F 21.2 °F 56% 30.05 in 10.0 mi ESE 5.8 mph - N/A   Clear
4:55 PM 35.6 °F 32.8 °F 19.4 °F 52% 30.04 in 10.0 mi East 3.5 mph - N/A   Clear
5:15 PM 35.6 °F 30.7 °F 21.2 °F 56% 30.04 in 10.0 mi East 5.8 mph - N/A   Clear
5:35 PM 35.6 °F 31.7 °F 21.2 °F 56% 30.04 in 10.0 mi ENE 4.6 mph - N/A   Clear
5:55 PM 35.6 °F 32.8 °F 21.2 °F 56% 30.03 in 10.0 mi NE 3.5 mph - N/A   Clear
6:15 PM 35.6 °F 32.8 °F 21.2 °F 56% 30.03 in 10.0 mi ENE 3.5 mph - N/A   Clear
6:35 PM 33.8 °F 28.6 °F 23.0 °F 65% 30.03 in 10.0 mi NE 5.8 mph - N/A   Clear
6:55 PM 33.8 °F 30.8 °F 23.0 °F 65% 30.03 in 10.0 mi ENE 3.5 mph - N/A   Clear
7:15 PM 33.8 °F 28.6 °F 23.0 °F 65% 30.03 in 10.0 mi ENE 5.8 mph - N/A   Clear
7:35 PM 32.0 °F 26.4 °F 24.8 °F 75% 30.03 in 10.0 mi ENE 5.8 mph - N/A   Clear
7:55 PM 32.0 °F - 24.8 °F 75% 30.04 in 10.0 mi Calm Calm - N/A   Clear
8:15 PM 32.0 °F - 23.0 °F 69% 30.05 in 10.0 mi Calm Calm - N/A   Clear
8:35 PM 32.0 °F - 24.8 °F 75% 30.06 in 10.0 mi Calm Calm - N/A   Clear
8:55 PM 32.0 °F 28.7 °F 24.8 °F 75% 30.06 in 10.0 mi ENE 3.5 mph - N/A   Clear
9:15 PM 32.0 °F - 24.8 °F 75% 30.05 in 10.0 mi Calm Calm - N/A   Clear
9:35 PM 32.0 °F 28.7 °F 24.8 °F 75% 30.05 in 10.0 mi ENE 3.5 mph - N/A   Clear
9:55 PM 32.0 °F 28.7 °F 23.0 °F 69% 30.05 in 10.0 mi NE 3.5 mph - N/A   Clear
10:15 PM 32.0 °F 27.5 °F 23.0 °F 69% 30.06 in 10.0 mi ENE 4.6 mph - N/A   Clear
10:35 PM 32.0 °F 26.4 °F 23.0 °F 69% 30.05 in 10.0 mi ENE 5.8 mph - N/A   Mostly Cloudy
10:55 PM 32.0 °F 25.6 °F 23.0 °F 69% 30.05 in 10.0 mi ENE 6.9 mph - N/A   Overcast
11:15 PM 32.0 °F 24.2 °F 23.0 °F 69% 30.04 in 10.0 mi ENE 9.2 mph - N/A   Overcast
11:35 PM 32.0 °F 24.2 °F 23.0 °F 69% 30.04 in 10.0 mi ENE 9.2 mph - N/A   Overcast
11:55 PM 32.0 °F 25.6 °F 23.0 °F 69% 30.04 in 10.0 mi ENE 6.9 mph - N/A   Overcast